Alexandria, MN

9:55 AM CST on December 09, 2019 (GMT -0600)
Chandler

Weather History for KAXN - October, 2019

Change the Weather History Date:

Tuesday, October 29, 2019

  Actual Average Record
Temperature  
Mean Temperature 26 °F -  
Max Temperature 33 °F 48 °F 72 °F (1950)
Min Temperature 19 °F 30 °F 17 °F (1964)
Degree Days  
Heating Degree Days 38    
Moisture  
Dew Point 14 °F    
Average Humidity 61    
Maximum Humidity 78    
Minimum Humidity 45    
Precipitation  
Precipitation 0.00 in - - ()
Sea Level Pressure  
Sea Level Pressure 30.28 in    
Wind  
Wind Speed 10 mph ()    
Max Wind Speed 20 mph    
Max Gust Speed 26 mph    
Visibility 10.0 miles    
Events      
Averages and records for this station are not official NWS values.
T = Trace of Precipitation, MM = Missing Value Source: Averaged Metar Reports

Daily Weather History Graph

Daily Weather History Graph

Search for Another Location

Airport or City:

Astronomy

Oct. 29, 2019 Rise Set
Actual Time 7:57 AM CDT 6:12 PM CDT
Civil Twilight 7:26 AM CDT 6:43 PM CDT
Nautical Twilight 6:51 AM CDT 7:18 PM CDT
Astronomical Twilight 6:16 AM CDT 7:52 PM CDT
Moon 9:35 AM CDT (10/29) 7:33 PM CDT (10/29)
Length of Visible Light 11h 17m
Length of Day
10h 15m
Waxing Crescent, 3% of the Moon is Illuminated
Oct 29
Waxing Crescent
Nov 4
First Quarter
Nov 12
Full
Nov 19
Last Quarter
Nov 26
New

Hourly Weather History & Observations

Time (CDT) Temp. Windchill Dew Point Humidity Pressure Visibility Wind Dir Wind Speed Gust Speed Precip Events Conditions
12:53 AM 25.0 °F 18.1 °F 19.0 °F 78% 30.14 in 10.0 mi SW 5.8 mph - N/A   Clear
1:53 AM 27.0 °F 18.0 °F 21.0 °F 78% 30.15 in 10.0 mi West 9.2 mph - N/A   Clear
2:53 AM 27.0 °F 18.0 °F 19.9 °F 75% 30.16 in 10.0 mi NNW 9.2 mph - N/A   Clear
3:53 AM 26.1 °F 17.6 °F 16.0 °F 66% 30.18 in 10.0 mi NW 8.1 mph - N/A   Clear
4:53 AM 25.0 °F 15.5 °F 12.0 °F 58% 30.19 in 10.0 mi NW 9.2 mph - N/A   Clear
5:53 AM 25.0 °F 14.2 °F 12.9 °F 60% 30.22 in 10.0 mi NW 11.5 mph - N/A   Clear
6:53 AM 23.0 °F 13.1 °F 12.9 °F 65% 30.24 in 10.0 mi WNW 9.2 mph - N/A   Clear
7:53 AM 21.9 °F 12.5 °F 14.0 °F 72% 30.25 in 10.0 mi WNW 8.1 mph - N/A   Clear
8:53 AM 24.1 °F 13.7 °F 15.1 °F 69% 30.27 in 10.0 mi WNW 10.4 mph - N/A   Clear
9:53 AM 25.0 °F 12.2 °F 14.0 °F 63% 30.30 in 10.0 mi West 16.1 mph 24.2 mph N/A   Clear
10:53 AM 26.1 °F 13.6 °F 15.1 °F 63% 30.30 in 10.0 mi West 16.1 mph 26.5 mph N/A   Clear
11:53 AM 27.0 °F 14.3 °F 14.0 °F 58% 30.32 in 10.0 mi West 17.3 mph - N/A   Clear
12:53 PM 30.0 °F - 14.0 °F 51% 30.32 in 10.0 mi North - - N/A   Clear
1:53 PM 30.9 °F 18.7 °F 12.9 °F 47% 30.30 in 10.0 mi West 19.6 mph - N/A   Clear
2:53 PM 32.0 °F 21.2 °F 12.9 °F 45% 30.29 in 10.0 mi West 16.1 mph - N/A   Clear
3:53 PM 30.9 °F 19.4 °F 12.9 °F 47% 30.29 in 10.0 mi WNW 17.3 mph 23.0 mph N/A   Clear
4:53 PM 30.0 °F 19.1 °F 12.9 °F 49% 30.30 in 10.0 mi WSW 15.0 mph - N/A   Scattered Clouds
5:53 PM 28.0 °F 15.3 °F 12.0 °F 51% 30.32 in 10.0 mi West 18.4 mph - N/A   Partly Cloudy
6:53 PM 27.0 °F 15.6 °F 12.0 °F 53% 30.35 in 10.0 mi West 13.8 mph - N/A   Clear
7:53 PM 25.0 °F 14.8 °F 12.9 °F 60% 30.35 in 10.0 mi West 10.4 mph - N/A   Clear
8:53 PM 24.1 °F 13.7 °F 12.9 °F 62% 30.36 in 10.0 mi West 10.4 mph - N/A   Clear
9:53 PM 24.1 °F 15.2 °F 12.9 °F 62% 30.38 in 10.0 mi West 8.1 mph - N/A   Clear
10:53 PM 21.9 °F 11.7 °F 12.9 °F 68% 30.39 in 10.0 mi West 9.2 mph - N/A   Clear
11:53 PM 19.9 °F 10.1 °F 12.0 °F 71% 30.38 in 10.0 mi WSW 8.1 mph - N/A   Clear